Location: Balsareny
(41.8670°N, 1.8830°E)
Time: 19:55:50
(UTC+02:00)

Tiangong - Pass Details

Date: 26 June 2021
Orbit: 374 x 386 km, 41.5° (Epoch: 25 July)

Event Time Altitude Azimuth Distance (km) Brightness Sun altitude
Exits shadow 05:04:07 11° 271° (W) 1,338 3.4 -11.5°
Maximum altitude 05:07:08 84° 184° (S) 384 0.9 -11.2°
Drops below altitude 10° 05:10:16 10° 95° (E) 1,392 4.5 -10.7°
Sets 05:12:20 0° 95° (E) 2,246 5.6 -10.5°
